STARLINK-35777 (66975 NORAD) Tracking and Keplerian Element Data

This shows tracking and keplerian element data for the satellite.

Feedback or suggestion? Click here.




ElementValue
Catalog66975
NameSTARLINK-35777
Epoch Orbit303
Epoch Day354.25003472
Epoch Year2025
RAAN121.0989
Inclination43.0019
Eccentricity0.0001758
Argument of Perigee270.8548
Mean Anonmoly120.3269
Mean Motion15.81084481
Decay Rate-0.01415194
L11 66975U 25288S 25354.25003472 -.01415194 00000+0 -78966-2 0 9994
L22 66975 43.0019 121.0989 0001758 270.8548 120.3269 15.81084481 3036



Live tracking and technical data element details for STARLINK-35777 (NORAD 66975). STARLINK-35777 can be tracked NOW for your location showing map with azimuth and elevation plus other details from your city location.







IsCatalogInMostPopularTable: catalog: 66975, numindb: 10
Update: records affected: 1



GetName: 66975 STARLINK-35777

Hit Count: updated at: Fri, 16 Jan 2026 08:44:10 GMT